TimeCST,TemperatureF,Dew PointF,Humidity,Sea Level PressureIn,VisibilityMPH,Wind Direction,Wind SpeedMPH,Gust SpeedMPH,PrecipitationIn,Events,Conditions,WindDirDegrees,DateUTC
12:15 AM,26.6,24.8,93,30.28,9.0,Calm,Calm,-,N/A,,Clear,0,2013-01-03 06:15:00
12:35 AM,26.6,24.8,93,30.28,8.0,WNW,3.5,-,N/A,,Clear,290,2013-01-03 06:35:00
12:55 AM,26.6,23.0,86,30.28,9.0,NW,3.5,-,N/A,,Clear,310,2013-01-03 06:55:00
1:35 AM,26.6,24.8,93,30.29,8.0,West,3.5,-,N/A,,Clear,260,2013-01-03 07:35:00
2:15 AM,24.8,23.0,93,30.30,8.0,Calm,Calm,-,N/A,,Clear,0,2013-01-03 08:15:00
2:35 AM,26.6,23.0,86,30.30,10.0,WSW,3.5,-,N/A,,Clear,250,2013-01-03 08:35:00
2:55 AM,26.6,23.0,86,30.30,8.0,WSW,4.6,-,N/A,,Clear,240,2013-01-03 08:55:00
3:15 AM,26.6,23.0,86,30.30,8.0,North,-9999.0,-,N/A,,Clear,0,2013-01-03 09:15:00
3:35 AM,26.6,23.0,86,30.30,8.0,WSW,4.6,-,N/A,,Clear,250,2013-01-03 09:35:00
3:55 AM,24.8,23.0,93,30.30,7.0,WSW,4.6,-,N/A,,Clear,250,2013-01-03 09:55:00
4:15 AM,24.8,23.0,93,30.31,7.0,West,5.8,-,N/A,,Clear,260,2013-01-03 10:15:00
4:35 AM,24.8,23.0,93,30.31,7.0,West,4.6,-,N/A,,Clear,280,2013-01-03 10:35:00
4:55 AM,24.8,23.0,93,30.32,7.0,West,3.5,-,N/A,,Clear,270,2013-01-03 10:55:00
5:15 AM,24.8,23.0,93,30.33,7.0,West,4.6,-,N/A,,Clear,260,2013-01-03 11:15:00
5:35 AM,24.8,23.0,93,30.33,7.0,WSW,3.5,-,N/A,,Clear,250,2013-01-03 11:35:00
5:55 AM,24.8,23.0,93,30.33,7.0,Calm,Calm,-,N/A,,Clear,0,2013-01-03 11:55:00
6:15 AM,24.8,23.0,93,30.34,5.0,WNW,3.5,-,N/A,,Clear,290,2013-01-03 12:15:00
6:35 AM,24.8,23.0,93,30.35,6.0,NW,5.8,-,N/A,,Clear,310,2013-01-03 12:35:00
6:55 AM,24.8,21.2,86,30.36,10.0,WNW,5.8,-,N/A,,Clear,300,2013-01-03 12:55:00
7:15 AM,24.8,19.4,80,30.36,9.0,NW,4.6,-,N/A,,Clear,310,2013-01-03 13:15:00
8:15 AM,24.8,21.2,86,30.37,10.0,Calm,Calm,-,N/A,,Clear,0,2013-01-03 14:15:00
9:35 AM,28.4,24.8,86,30.41,9.0,WNW,4.6,-,N/A,,Clear,290,2013-01-03 15:35:00
9:55 AM,30.2,24.8,80,30.42,8.0,WNW,4.6,-,N/A,,Clear,300,2013-01-03 15:55:00
10:15 AM,32.0,24.8,75,30.42,8.0,WNW,4.6,-,N/A,,Clear,290,2013-01-03 16:15:00
10:35 AM,32.0,26.6,80,30.42,9.0,NW,3.5,-,N/A,,Clear,310,2013-01-03 16:35:00
10:55 AM,33.8,26.6,75,30.42,9.0,NW,3.5,-,N/A,,Clear,310,2013-01-03 16:55:00
11:15 AM,35.6,28.4,75,30.41,9.0,NNW,3.5,-,N/A,,Clear,330,2013-01-03 17:15:00
11:35 AM,37.4,28.4,70,30.41,10.0,SW,3.5,-,N/A,,Clear,230,2013-01-03 17:35:00
11:55 AM,37.4,28.4,70,30.40,9.0,Calm,Calm,-,N/A,,Clear,0,2013-01-03 17:55:00
12:15 PM,37.4,28.4,70,30.39,9.0,Calm,Calm,-,N/A,,Clear,0,2013-01-03 18:15:00
12:35 PM,37.4,30.2,75,30.39,9.0,SSW,3.5,-,N/A,,Clear,200,2013-01-03 18:35:00
12:55 PM,39.2,28.4,65,30.38,10.0,SSW,3.5,-,N/A,,Clear,200,2013-01-03 18:55:00
1:15 PM,39.2,28.4,65,30.38,10.0,West,3.5,-,N/A,,Clear,280,2013-01-03 19:15:00
1:35 PM,41.0,28.4,61,30.37,10.0,WNW,4.6,-,N/A,,Clear,290,2013-01-03 19:35:00
2:15 PM,41.0,30.2,65,30.37,10.0,Calm,Calm,-,N/A,,Clear,0,2013-01-03 20:15:00
2:35 PM,41.0,28.4,61,30.37,10.0,SE,4.6,-,N/A,,Clear,140,2013-01-03 20:35:00
2:55 PM,41.0,28.4,61,30.37,10.0,SE,4.6,-,N/A,,Clear,130,2013-01-03 20:55:00
3:15 PM,41.0,30.2,65,30.37,10.0,SE,4.6,-,N/A,,Clear,140,2013-01-03 21:15:00
3:35 PM,41.0,28.4,61,30.37,10.0,SE,4.6,-,N/A,,Clear,140,2013-01-03 21:35:00
3:55 PM,41.0,30.2,65,30.37,10.0,SE,3.5,-,N/A,,Clear,140,2013-01-03 21:55:00
4:15 PM,41.0,28.4,61,30.38,10.0,SSE,3.5,-,N/A,,Clear,150,2013-01-03 22:15:00
4:35 PM,39.2,32.0,75,30.38,10.0,SE,4.6,-,N/A,,Clear,140,2013-01-03 22:35:00
4:55 PM,37.4,32.0,81,30.38,10.0,South,3.5,-,N/A,,Clear,180,2013-01-03 22:55:00
5:15 PM,37.4,28.4,70,30.39,10.0,South,8.1,-,N/A,,Clear,180,2013-01-03 23:15:00
5:35 PM,37.4,28.4,70,30.39,10.0,South,6.9,-,N/A,,Clear,180,2013-01-03 23:35:00
5:55 PM,35.6,28.4,75,30.41,10.0,South,5.8,-,N/A,,Clear,180,2013-01-03 23:55:00
6:15 PM,35.6,28.4,75,30.41,10.0,SSW,5.8,-,N/A,,Clear,200,2013-01-04 00:15:00
6:35 PM,33.8,30.2,87,30.41,10.0,South,3.5,-,N/A,,Clear,190,2013-01-04 00:35:00
6:55 PM,32.0,28.4,87,30.41,10.0,Calm,Calm,-,N/A,,Clear,0,2013-01-04 00:55:00
7:15 PM,33.8,28.4,81,30.42,10.0,South,3.5,-,N/A,,Clear,180,2013-01-04 01:15:00
7:35 PM,33.8,28.4,81,30.43,10.0,South,3.5,-,N/A,,Clear,190,2013-01-04 01:35:00
7:55 PM,32.0,28.4,87,30.44,10.0,South,5.8,-,N/A,,Clear,190,2013-01-04 01:55:00
8:15 PM,32.0,28.4,87,30.43,10.0,South,4.6,-,N/A,,Clear,190,2013-01-04 02:15:00
8:35 PM,32.0,28.4,87,30.43,10.0,South,4.6,-,N/A,,Clear,180,2013-01-04 02:35:00
8:55 PM,32.0,30.2,93,30.43,10.0,South,3.5,-,N/A,,Clear,190,2013-01-04 02:55:00
9:15 PM,32.0,28.4,87,30.43,10.0,Calm,Calm,-,N/A,,Clear,0,2013-01-04 03:15:00
9:35 PM,32.0,28.4,87,30.43,10.0,Calm,Calm,-,N/A,,Clear,0,2013-01-04 03:35:00
9:55 PM,32.0,28.4,87,30.44,10.0,SW,3.5,-,N/A,,Clear,220,2013-01-04 03:55:00
10:15 PM,30.2,28.4,93,30.44,10.0,SSW,3.5,-,N/A,,Clear,200,2013-01-04 04:15:00
10:35 PM,32.0,28.4,87,30.44,10.0,SW,3.5,-,N/A,,Clear,220,2013-01-04 04:35:00
10:55 PM,30.2,28.4,93,30.44,8.0,SW,4.6,-,N/A,,Clear,230,2013-01-04 04:55:00
11:15 PM,30.2,28.4,93,30.44,10.0,Calm,Calm,-,N/A,,Clear,0,2013-01-04 05:15:00
11:35 PM,30.2,28.4,93,30.43,10.0,Calm,Calm,-,N/A,,Clear,0,2013-01-04 05:35:00
11:55 PM,30.2,28.4,93,30.43,7.0,North,3.5,-,N/A,,Clear,360,2013-01-04 05:55:00